Location: ??????????
(54.4061°N, 22.6114°E)
Time: 23:42:56
(UTC+00:00)

Cosmos 1937 Rocket - Pass Details

Date: 23 October 2019
Orbit: 747 x 780 km, 74.0° (Epoch: 22 November)

Event Time Altitude Azimuth Distance (km) Brightness Sun altitude
Rises 16:33:01 0° 334° (NNW) 3,210 7.0 -12.1°
Reaches altitude 10° 16:35:28 10° 340° (NNW) 2,280 6.2 -12.4°
Maximum altitude 16:40:28 49° 55° (NE) 969 3.7 -13.2°
Enters shadow 16:44:59 13° 129° (SE) 2,096 5.3 -13.8°
